Location: Unspecified
(0.0000°N, 0.0000°E)
Time: 01:02:04
(UTC+00:00)

S-56A Canister/Altair - Visible Passes

Search period start: 20 July 2019 00:00
Search period end: 30 July 2019 00:00
Orbit: 632 x 2500 km, 38.9° (Epoch: 18 July)

Date Brightness Start Highest point End Pass type
(mag) Time Alt. Az. Time Alt. Az. Time Alt. Az.
20 Jul 10.7 02:14:20 17° E 02:14:20 17° E 02:16:59 10° E visible
20 Jul 8.8 04:11:46 48° W 04:14:06 63° NW 04:25:28 10° NE visible
21 Jul 8.6 03:41:04 72° NW 03:41:05 72° NW 03:51:52 10° NE visible
21 Jul 10.5 05:41:00 10° WNW 05:47:49 21° NNW 05:56:28 10° NNE visible
22 Jul 9.1 03:10:21 55° NE 03:10:21 55° NE 03:18:16 10° NE visible
22 Jul 10.3 05:07:47 10° WNW 05:14:25 23° NNW 05:23:07 10° NNE visible
23 Jul 9.9 02:39:35 33° NE 02:39:35 33° NE 02:44:40 10° NE visible
23 Jul 10.0 04:37:01 18° WNW 04:41:06 25° NNW 04:49:46 10° NNE visible
24 Jul 10.6 02:08:47 19° ENE 02:08:47 19° ENE 02:11:05 10° NE visible
24 Jul 9.7 04:06:14 26° NW 04:07:53 27° NNW 04:16:26 10° NNE visible
25 Jul 9.7 03:35:24 30° NNW 03:35:24 30° NNW 03:43:07 10° NNE visible
26 Jul 10.0 03:04:33 27° N 03:04:33 27° N 03:09:52 10° NNE visible
27 Jul 10.4 02:33:40 20° NNE 02:33:40 20° NNE 02:36:38 10° NNE visible
28 Jul 10.9 02:02:45 12° NNE 02:02:45 12° NNE 02:03:27 10° NE visible
28 Jul 10.6 04:01:04 10° NNW 04:02:30 10° NNW 04:04:01 10° NNW visible
29 Jul 10.6 03:29:15 11° NNW 03:29:16 11° NNW 03:31:39 10° N visible
